Location: Franzen
(48.6167°N, 15.3833°E)
Time: 00:04:11
(UTC+00:00)

Cosmos 2219 - Pass Details

Date: 29 July 2021
Orbit: 834 x 859 km, 71.1° (Epoch: 22 September)

Event Time Altitude Azimuth Distance (km) Brightness Sun altitude
Exits shadow 00:36:39 26° 246° (WSW) 1,634 4.3 -19.6°
Maximum altitude 00:39:34 47° 306° (NW) 1,129 3.9 -19.4°
Drops below altitude 10° 00:45:08 10° 20° (NNE) 2,506 6.9 -19.0°
Sets 00:47:42 0° 26° (NNE) 3,447 8.1 -18.9°
